Time,TemperatureF,DewpointF,PressureIn,WindDirection,WindDirectionDegrees,WindSpeedMPH,WindSpeedGustMPH,Humidity,HourlyPrecipIn,Conditions,Clouds,dailyrainin,SoftwareType,DateUTC
2013-06-19 00:01:00,51.8,40.0,29.99,South,180,1.6,1.8,64,0.00,,,0.00,WUHU21623XXSP,2013-06-19 05:01:00,
2013-06-19 00:06:00,52.0,39.3,29.99,South,180,1.8,2.0,62,0.00,,,0.00,WUHU21623XXSP,2013-06-19 05:06:00,
2013-06-19 00:11:00,52.3,39.2,29.99,South,180,1.3,2.2,61,0.00,,,0.00,WUHU21623XXSP,2013-06-19 05:11:00,
2013-06-19 00:16:00,52.3,39.2,29.99,South,180,0.7,2.2,61,0.00,,,0.00,WUHU21623XXSP,2013-06-19 05:16:00,
2013-06-19 00:21:00,52.2,39.5,29.99,South,180,0.7,2.0,62,0.00,,,0.00,WUHU21623XXSP,2013-06-19 05:21:00,
2013-06-19 00:26:00,51.6,38.1,29.99,South,180,1.1,1.8,60,0.00,,,0.00,WUHU21623XXSP,2013-06-19 05:26:00,
2013-06-19 00:31:00,51.6,38.1,29.99,South,180,0.9,1.8,60,0.00,,,0.00,WUHU21623XXSP,2013-06-19 05:31:00,
2013-06-19 00:36:00,51.3,38.2,29.99,South,180,0.0,1.8,61,0.00,,,0.00,WUHU21623XXSP,2013-06-19 05:36:00,
2013-06-19 00:41:00,51.1,37.7,29.99,South,180,0.0,2.2,60,0.00,,,0.00,WUHU21623XXSP,2013-06-19 05:41:00,
2013-06-19 00:46:00,50.9,37.5,29.99,South,180,0.0,2.2,60,0.00,,,0.00,WUHU21623XXSP,2013-06-19 05:46:00,
2013-06-19 00:51:00,51.1,37.7,29.98,South,180,0.9,1.1,60,0.00,,,0.00,WUHU21623XXSP,2013-06-19 05:51:00,
2013-06-19 00:56:00,50.7,38.5,29.99,South,180,0.0,1.3,63,0.00,,,0.00,WUHU21623XXSP,2013-06-19 05:56:00,
2013-06-19 01:01:00,50.4,39.0,29.98,South,180,1.1,1.3,65,0.00,,,0.00,WUHU21623XXSP,2013-06-19 06:01:00,
2013-06-19 01:06:00,49.8,37.7,29.99,South,180,0.0,1.1,63,0.00,,,0.00,WUHU21623XXSP,2013-06-19 06:06:00,
2013-06-19 01:11:00,49.6,37.9,29.99,South,180,0.0,1.1,64,0.00,,,0.00,WUHU21623XXSP,2013-06-19 06:11:00,
2013-06-19 01:16:00,49.3,37.2,29.98,South,180,0.0,0.7,63,0.00,,,0.00,WUHU21623XXSP,2013-06-19 06:16:00,
2013-06-19 01:21:00,49.3,37.2,29.98,South,180,0.0,0.0,63,0.00,,,0.00,WUHU21623XXSP,2013-06-19 06:21:00,
2013-06-19 01:26:00,48.7,37.5,29.98,South,180,1.3,1.8,65,0.00,,,0.00,WUHU21623XXSP,2013-06-19 06:26:00,
2013-06-19 01:31:00,48.4,38.2,29.98,South,180,1.6,1.8,68,0.00,,,0.00,WUHU21623XXSP,2013-06-19 06:31:00,
2013-06-19 01:36:00,48.0,39.0,29.98,South,180,0.9,2.0,71,0.00,,,0.00,WUHU21623XXSP,2013-06-19 06:36:00,
2013-06-19 01:41:00,47.8,38.9,29.98,South,180,0.0,2.0,71,0.00,,,0.00,WUHU21623XXSP,2013-06-19 06:41:00,
2013-06-19 01:46:00,47.8,39.2,29.97,South,180,0.4,2.0,72,0.00,,,0.00,WUHU21623XXSP,2013-06-19 06:46:00,
2013-06-19 01:51:00,48.4,37.9,29.97,South,180,0.0,1.8,67,0.00,,,0.00,WUHU21623XXSP,2013-06-19 06:51:00,
2013-06-19 01:56:00,48.7,37.5,29.97,South,180,0.0,1.8,65,0.00,,,0.00,WUHU21623XXSP,2013-06-19 06:56:00,
2013-06-19 02:01:00,48.4,37.5,29.97,South,180,0.4,0.9,66,0.00,,,0.00,WUHU21623XXSP,2013-06-19 07:01:00,
2013-06-19 02:06:00,47.8,37.4,29.97,South,180,1.6,1.6,67,0.00,,,0.00,WUHU21623XXSP,2013-06-19 07:06:00,
2013-06-19 02:11:00,47.7,38.4,29.97,South,180,1.3,1.8,70,0.00,,,0.00,WUHU21623XXSP,2013-06-19 07:11:00,
2013-06-19 02:16:00,47.8,38.5,29.97,South,180,0.2,1.8,70,0.00,,,0.00,WUHU21623XXSP,2013-06-19 07:16:00,
2013-06-19 02:21:00,47.5,38.2,29.97,SSE,157,1.1,1.8,70,0.00,,,0.00,WUHU21623XXSP,2013-06-19 07:21:00,
2013-06-19 02:26:00,47.7,38.7,29.97,SSE,157,2.0,2.5,71,0.00,,,0.00,WUHU21623XXSP,2013-06-19 07:26:00,
2013-06-19 02:31:00,47.8,38.5,29.97,SSE,157,1.3,2.5,70,0.00,,,0.00,WUHU21623XXSP,2013-06-19 07:31:00,
2013-06-19 02:36:00,47.8,37.7,29.97,SSE,157,1.8,2.2,68,0.00,,,0.00,WUHU21623XXSP,2013-06-19 07:36:00,
2013-06-19 02:41:00,47.7,37.6,29.97,SSE,157,1.1,2.5,68,0.00,,,0.00,WUHU21623XXSP,2013-06-19 07:41:00,
2013-06-19 02:46:00,47.7,37.2,29.97,SSE,157,1.8,2.5,67,0.00,,,0.00,WUHU21623XXSP,2013-06-19 07:46:00,
2013-06-19 02:51:00,47.5,37.8,29.97,SSE,157,1.6,2.0,69,0.00,,,0.00,WUHU21623XXSP,2013-06-19 07:51:00,
2013-06-19 02:56:00,47.3,37.6,29.97,SSE,157,1.3,1.8,69,0.00,,,0.00,WUHU21623XXSP,2013-06-19 07:56:00,
2013-06-19 03:01:00,47.5,37.8,29.97,SSE,157,1.1,1.6,69,0.00,,,0.00,WUHU21623XXSP,2013-06-19 08:01:00,
2013-06-19 03:06:00,47.5,38.2,29.97,SSE,157,1.3,1.3,70,0.00,,,0.00,WUHU21623XXSP,2013-06-19 08:06:00,
2013-06-19 03:11:00,47.1,37.9,29.97,SSE,157,1.1,1.6,70,0.00,,,0.00,WUHU21623XXSP,2013-06-19 08:11:00,
2013-06-19 03:16:00,46.9,38.7,29.97,SSE,157,0.7,1.6,73,0.00,,,0.00,WUHU21623XXSP,2013-06-19 08:16:00,
2013-06-19 03:21:00,46.8,38.6,29.97,SSE,157,0.7,1.6,73,0.00,,,0.00,WUHU21623XXSP,2013-06-19 08:21:00,
2013-06-19 03:26:00,46.8,38.9,29.96,SSE,157,0.0,1.6,74,0.00,,,0.00,WUHU21623XXSP,2013-06-19 08:26:00,
2013-06-19 03:31:00,46.9,39.1,29.96,SSE,157,0.0,1.3,74,0.00,,,0.00,WUHU21623XXSP,2013-06-19 08:31:00,
2013-06-19 03:36:00,46.6,39.4,29.96,SSE,157,0.0,0.7,76,0.00,,,0.00,WUHU21623XXSP,2013-06-19 08:36:00,
2013-06-19 03:41:00,46.6,38.4,29.96,SSE,157,0.9,1.6,73,0.00,,,0.00,WUHU21623XXSP,2013-06-19 08:41:00,
2013-06-19 03:46:00,46.6,38.4,29.96,SSE,157,0.0,1.6,73,0.00,,,0.00,WUHU21623XXSP,2013-06-19 08:46:00,
2013-06-19 03:51:00,46.6,38.4,29.96,SSE,157,0.0,1.3,73,0.00,,,0.00,WUHU21623XXSP,2013-06-19 08:51:00,
2013-06-19 03:56:00,46.8,38.9,29.97,SSE,157,0.0,0.0,74,0.00,,,0.00,WUHU21623XXSP,2013-06-19 08:56:00,
2013-06-19 04:01:00,46.6,39.8,29.97,SSE,157,0.0,0.0,77,0.00,,,0.00,WUHU21623XXSP,2013-06-19 09:01:00,
2013-06-19 04:06:00,46.4,40.0,29.97,SSE,157,0.0,0.0,78,0.00,,,0.00,WUHU21623XXSP,2013-06-19 09:06:00,
2013-06-19 04:11:00,46.6,40.1,29.97,SSE,157,0.0,0.0,78,0.00,,,0.00,WUHU21623XXSP,2013-06-19 09:11:00,
2013-06-19 04:16:00,46.6,40.1,29.97,SSE,157,0.0,0.0,78,0.00,,,0.00,WUHU21623XXSP,2013-06-19 09:16:00,
2013-06-19 04:21:00,46.8,40.3,29.97,SSE,157,0.0,0.0,78,0.00,,,0.00,WUHU21623XXSP,2013-06-19 09:21:00,
2013-06-19 04:26:00,46.8,41.0,29.97,SSE,157,0.0,0.0,80,0.00,,,0.00,WUHU21623XXSP,2013-06-19 09:26:00,
2013-06-19 04:31:00,46.6,40.8,29.97,SSE,157,0.0,0.0,80,0.00,,,0.00,WUHU21623XXSP,2013-06-19 09:31:00,
2013-06-19 04:36:00,46.6,40.8,29.97,SSE,157,0.0,0.0,80,0.00,,,0.00,WUHU21623XXSP,2013-06-19 09:36:00,
2013-06-19 04:41:00,46.6,40.8,29.97,SSE,157,0.0,0.0,80,0.00,,,0.00,WUHU21623XXSP,2013-06-19 09:41:00,
2013-06-19 04:46:00,46.6,40.8,29.97,SSE,157,0.0,0.0,80,0.00,,,0.00,WUHU21623XXSP,2013-06-19 09:46:00,
2013-06-19 04:51:00,46.2,39.8,29.97,SSE,157,0.0,0.0,78,0.00,,,0.00,WUHU21623XXSP,2013-06-19 09:51:00,
2013-06-19 04:56:00,46.2,39.1,29.97,SSE,157,0.0,0.0,76,0.00,,,0.00,WUHU21623XXSP,2013-06-19 09:56:00,
2013-06-19 05:01:00,46.2,38.8,29.97,SSE,157,0.0,0.0,75,0.00,,,0.00,WUHU21623XXSP,2013-06-19 10:01:00,
2013-06-19 05:06:00,47.1,38.9,29.97,SSE,157,0.0,1.3,73,0.00,,,0.00,WUHU21623XXSP,2013-06-19 10:06:00,
2013-06-19 05:11:00,46.9,38.4,29.97,SSE,157,0.0,1.3,72,0.00,,,0.00,WUHU21623XXSP,2013-06-19 10:11:00,
2013-06-19 05:16:00,46.8,38.2,29.98,SSE,157,0.0,0.7,72,0.00,,,0.00,WUHU21623XXSP,2013-06-19 10:16:00,
2013-06-19 05:21:00,46.8,38.6,29.98,SSE,157,0.0,0.0,73,0.00,,,0.00,WUHU21623XXSP,2013-06-19 10:21:00,
2013-06-19 05:26:00,46.6,38.4,29.98,SSE,157,0.0,0.0,73,0.00,,,0.00,WUHU21623XXSP,2013-06-19 10:26:00,
2013-06-19 05:31:00,46.6,38.8,29.98,SSE,157,0.0,1.1,74,0.00,,,0.00,WUHU21623XXSP,2013-06-19 10:31:00,
2013-06-19 05:36:00,46.6,39.1,29.98,SSE,157,0.0,1.1,75,0.00,,,0.00,WUHU21623XXSP,2013-06-19 10:36:00,
2013-06-19 05:41:00,46.2,39.1,29.98,SSE,157,0.0,1.1,76,0.00,,,0.00,WUHU21623XXSP,2013-06-19 10:41:00,
2013-06-19 05:46:00,46.2,39.8,29.98,SSE,157,1.1,2.0,78,0.00,,,0.00,WUHU21623XXSP,2013-06-19 10:46:00,
2013-06-19 05:51:00,46.2,39.8,29.98,SSE,157,0.0,2.0,78,0.00,,,0.00,WUHU21623XXSP,2013-06-19 10:51:00,
2013-06-19 05:56:00,46.6,39.4,29.98,SSE,157,0.0,1.6,76,0.00,,,0.00,WUHU21623XXSP,2013-06-19 10:56:00,
2013-06-19 06:01:00,46.8,39.6,29.98,SSE,157,0.0,1.8,76,0.00,,,0.00,WUHU21623XXSP,2013-06-19 11:01:00,
2013-06-19 06:06:00,47.1,39.9,29.98,SSE,157,0.9,1.8,76,0.00,,,0.00,WUHU21623XXSP,2013-06-19 11:06:00,
2013-06-19 06:11:00,47.5,40.6,29.98,SSE,157,1.8,2.2,77,0.00,,,0.00,WUHU21623XXSP,2013-06-19 11:11:00,
2013-06-19 06:16:00,48.2,41.2,29.98,SSE,157,0.4,2.2,77,0.00,,,0.00,WUHU21623XXSP,2013-06-19 11:16:00,
2013-06-19 06:21:00,48.7,41.8,29.98,SSE,157,0.7,2.2,77,0.00,,,0.00,WUHU21623XXSP,2013-06-19 11:21:00,
2013-06-19 06:25:00,49.3,42.0,29.98,SSE,157,0.9,1.8,76,0.00,,,0.00,WUHU21623XXSP,2013-06-19 11:25:00,
2013-06-19 06:30:00,49.8,42.5,29.98,SSE,157,0.9,1.8,76,0.00,,,0.00,WUHU21623XXSP,2013-06-19 11:30:00,
2013-06-19 06:35:00,49.8,42.5,29.98,SSE,157,1.1,1.8,76,0.00,,,0.00,WUHU21623XXSP,2013-06-19 11:35:00,
2013-06-19 06:40:00,50.2,43.6,29.98,SSE,157,0.0,2.7,78,0.00,,,0.00,WUHU21623XXSP,2013-06-19 11:40:00,
2013-06-19 06:45:00,50.5,43.2,29.98,SSE,157,1.3,2.7,76,0.00,,,0.00,WUHU21623XXSP,2013-06-19 11:45:00,
2013-06-19 06:50:00,50.7,43.8,29.98,SSE,157,0.0,2.5,77,0.00,,,0.00,WUHU21623XXSP,2013-06-19 11:50:00,
2013-06-19 06:55:00,51.6,44.7,29.98,SSE,157,0.0,1.8,77,0.00,,,0.00,WUHU21623XXSP,2013-06-19 11:55:00,
2013-06-19 07:00:00,51.4,44.5,29.98,SSE,157,0.0,0.3,77,0.00,,,0.00,WUHU21623XXSP,2013-06-19 12:00:00,
2013-06-19 07:05:00,52.2,44.1,29.98,SSE,157,0.0,0.4,74,0.00,,,0.00,WUHU21623XXSP,2013-06-19 12:05:00,
2013-06-19 07:10:00,52.9,44.1,29.98,SSE,157,0.0,0.4,72,0.00,,,0.00,WUHU21623XXSP,2013-06-19 12:10:00,
2013-06-19 07:15:00,53.8,44.6,29.98,South,180,0.7,1.3,71,0.00,,,0.00,WUHU21623XXSP,2013-06-19 12:15:00,
2013-06-19 07:20:00,54.3,44.8,29.99,South,180,0.0,1.3,70,0.00,,,0.00,WUHU21623XXSP,2013-06-19 12:20:00,
2013-06-19 07:25:00,55.4,45.0,29.98,SSE,157,0.0,2.9,68,0.00,,,0.00,WUHU21623XXSP,2013-06-19 12:25:00,
2013-06-19 07:30:00,55.9,45.5,29.98,SSW,202,0.0,2.9,68,0.00,,,0.00,WUHU21623XXSP,2013-06-19 12:30:00,
2013-06-19 07:35:00,56.3,46.3,29.98,SSW,202,0.0,2.9,69,0.00,,,0.00,WUHU21623XXSP,2013-06-19 12:35:00,
2013-06-19 07:40:00,56.8,47.2,29.99,SSW,202,0.0,2.9,70,0.00,,,0.00,WUHU21623XXSP,2013-06-19 12:40:00,
2013-06-19 07:45:00,57.6,47.0,29.99,SSW,202,1.6,3.1,68,0.00,,,0.00,WUHU21623XXSP,2013-06-19 12:45:00,
2013-06-19 07:50:00,57.9,47.4,29.99,SE,135,0.0,4.3,68,0.00,,,0.00,WUHU21623XXSP,2013-06-19 12:50:00,
2013-06-19 07:55:00,57.9,46.6,29.99,SE,135,0.0,4.3,66,0.00,,,0.00,WUHU21623XXSP,2013-06-19 12:55:00,
2013-06-19 08:00:00,58.5,47.9,29.99,SSE,157,0.0,3.4,68,0.00,,,0.00,WUHU21623XXSP,2013-06-19 13:00:00,
2013-06-19 08:05:00,58.8,48.7,29.99,East,90,2.5,3.4,69,0.00,,,0.00,WUHU21623XXSP,2013-06-19 13:05:00,
2013-06-19 08:10:00,58.8,49.1,29.99,SSW,202,0.0,3.4,70,0.00,,,0.00,WUHU21623XXSP,2013-06-19 13:10:00,
2013-06-19 08:15:00,58.8,48.3,29.99,SW,225,1.8,4.3,68,0.00,,,0.00,WUHU21623XXSP,2013-06-19 13:15:00,
2013-06-19 08:20:00,59.2,49.0,29.99,SSW,202,1.8,4.3,69,0.00,,,0.00,WUHU21623XXSP,2013-06-19 13:20:00,
2013-06-19 08:25:00,59.4,47.6,29.99,SSE,157,0.0,5.8,65,0.00,,,0.00,WUHU21623XXSP,2013-06-19 13:25:00,
2013-06-19 08:30:00,59.7,49.6,29.99,SSW,202,0.0,5.8,69,0.00,,,0.00,WUHU21623XXSP,2013-06-19 13:30:00,
2013-06-19 08:35:00,60.1,49.1,29.99,SSW,202,0.0,7.8,67,0.00,,,0.00,WUHU21623XXSP,2013-06-19 13:35:00,
2013-06-19 08:40:00,60.6,49.7,29.99,SW,225,1.8,7.8,67,0.00,,,0.00,WUHU21623XXSP,2013-06-19 13:40:00,
2013-06-19 08:45:00,61.2,49.3,29.98,South,180,2.9,4.7,65,0.00,,,0.00,WUHU21623XXSP,2013-06-19 13:45:00,
2013-06-19 08:50:00,61.3,50.3,29.98,SW,225,0.0,4.7,67,0.00,,,0.00,WUHU21623XXSP,2013-06-19 13:50:00,
2013-06-19 08:55:00,62.8,50.4,29.98,SW,225,0.0,4.5,64,0.00,,,0.00,WUHU21623XXSP,2013-06-19 13:55:00,
2013-06-19 09:00:00,63.9,51.4,29.97,SSW,202,0.0,3.8,64,0.00,,,0.00,WUHU21623XXSP,2013-06-19 14:00:00,
2013-06-19 09:05:00,64.8,50.5,29.97,WSW,247,2.0,4.0,60,0.00,,,0.00,WUHU21623XXSP,2013-06-19 14:05:00,
2013-06-19 09:10:00,66.0,51.3,29.97,South,180,1.3,5.6,59,0.00,,,0.00,WUHU21623XXSP,2013-06-19 14:10:00,
2013-06-19 09:15:00,66.6,52.3,29.97,SSW,202,5.6,8.7,60,0.00,,,0.00,WUHU21623XXSP,2013-06-19 14:15:00,
2013-06-19 09:20:00,66.7,52.0,29.96,SSW,202,6.9,11.0,59,0.00,,,0.00,WUHU21623XXSP,2013-06-19 14:20:00,
2013-06-19 09:25:00,66.7,52.0,29.97,SSE,157,4.3,11.0,59,0.00,,,0.00,WUHU21623XXSP,2013-06-19 14:25:00,
2013-06-19 09:30:00,65.5,51.7,29.97,SSW,202,1.1,8.5,61,0.00,,,0.00,WUHU21623XXSP,2013-06-19 14:30:00,
2013-06-19 09:35:00,65.1,50.9,29.97,SSW,202,2.7,7.8,60,0.00,,,0.00,WUHU21623XXSP,2013-06-19 14:35:00,
2013-06-19 09:40:00,64.8,51.4,29.97,SSW,202,0.7,6.0,62,0.00,,,0.00,WUHU21623XXSP,2013-06-19 14:40:00,
2013-06-19 09:45:00,64.9,52.4,29.96,South,180,0.0,4.7,64,0.00,,,0.00,WUHU21623XXSP,2013-06-19 14:45:00,
2013-06-19 09:50:00,65.1,51.7,29.96,SSW,202,4.9,6.9,62,0.00,,,0.00,WUHU21623XXSP,2013-06-19 14:50:00,
2013-06-19 09:55:00,65.1,53.0,29.96,South,180,0.0,6.9,65,0.00,,,0.00,WUHU21623XXSP,2013-06-19 14:55:00,
2013-06-19 10:00:00,65.1,51.7,29.96,SSE,157,0.0,5.8,62,0.00,,,0.00,WUHU21623XXSP,2013-06-19 15:00:00,
2013-06-19 10:05:00,64.9,52.8,29.96,South,180,0.7,6.3,65,0.00,,,0.00,WUHU21623XXSP,2013-06-19 15:05:00,
2013-06-19 10:10:00,65.5,52.1,29.96,South,180,2.0,6.3,62,0.00,,,0.00,WUHU21623XXSP,2013-06-19 15:10:00,
2013-06-19 10:15:00,66.4,54.2,29.96,SW,225,0.7,6.9,65,0.00,,,0.00,WUHU21623XXSP,2013-06-19 15:15:00,
2013-06-19 10:20:00,66.9,53.0,29.97,WSW,247,4.9,6.9,61,0.00,,,0.00,WUHU21623XXSP,2013-06-19 15:20:00,
2013-06-19 10:25:00,66.7,52.9,29.97,SW,225,0.7,6.3,61,0.00,,,0.00,WUHU21623XXSP,2013-06-19 15:25:00,
2013-06-19 10:30:00,66.0,52.2,29.96,SSW,202,3.6,8.1,61,0.00,,,0.00,WUHU21623XXSP,2013-06-19 15:30:00,
2013-06-19 10:35:00,65.8,53.3,29.97,SSW,202,0.0,8.1,64,0.00,,,0.00,WUHU21623XXSP,2013-06-19 15:35:00,
2013-06-19 10:40:00,65.8,53.3,29.97,SSW,202,0.0,3.6,64,0.00,,,0.00,WUHU21623XXSP,2013-06-19 15:40:00,
2013-06-19 10:45:00,65.8,53.3,29.96,SSW,202,0.0,0.0,64,0.00,,,0.00,WUHU21623XXSP,2013-06-19 15:45:00,